Powrót do katalogu

CZ-6A DEB

AktywnyPO
NORAD 60892·DEBRIS·🇨🇳 China

Wystrzelony Aug 6, 2024 z Taiyuan Satellite Launch Center

Loading…

Następne Przeloty (najbliższe 24 godziny)

TLE

ŚwieżeSource: Space-Track

Epoka: Sep 14, 2026, 07:49 UTC

1 60892U 24140KX  26257.32605056  .00000298  00000-0  13221-3 0  9996
2 60892  89.1164 275.6668 0051058 221.0991 138.6349 14.19957380107312

Śledź CZ-6A DEB w czasie rzeczywistym z AllMySat

Download on the App Store